GW0531 Weather Reports


Display with metric or nautical units.
time (UTC)temp
F
wind
direction
speed
MPH
gust
MPH
rain 1hr
in
rain 24hr
in
rain mn
in
humidity
%
barometer
mb
20260506134858 75 220 0.0 3.0 0.00 0.00 0.00 73 1017.7
20260506134354 74 234 2.0 4.0 0.00 0.00 0.00 73 1017.8
20260506133851 74 219 4.0 5.0 0.00 0.00 0.00 73 1017.6
20260506133348 74 278 2.0 4.0 0.00 0.00 0.00 73 1017.6
20260506132844 74 156 1.0 3.0 0.00 0.00 0.00 74 1017.5
20260506132342 73 252 2.0 5.0 0.00 0.00 0.00 75 1017.5
20260506131840 74 114 2.0 2.0 0.00 0.00 0.00 75 1017.6
20260506131336 73 147 3.0 8.0 0.00 0.00 0.00 77 1017.5
20260506130833 72 214 0.0 5.0 0.00 0.00 0.00 79 1017.4
20260506130329 71 302 4.0 4.0 0.00 0.00 0.00 80 1017.7
20260506125827 71 217 5.0 5.0 0.00 0.00 0.00 81 1017.3
20260506125326 70 190 2.0 3.0 0.00 0.00 0.00 82 1017.2
20260506124824 70 240 2.0 4.0 0.00 0.00 0.00 82 1017.2
20260506124320 70 108 1.0 4.0 0.00 0.00 0.00 83 1017.3
20260506123818 69 131 0.0 4.0 0.00 0.00 0.00 84 1017.2
20260506123316 68 181 2.0 2.0 0.00 0.00 0.00 85 1017.2
20260506122813 68 217 0.0 3.0 0.00 0.00 0.00 86 1017.1
20260506122310 68 77 1.0 2.0 0.00 0.00 0.00 87 1017.1
20260506121808 67 103 2.0 2.0 0.00 0.00 0.00 88 1017.1
20260506121305 66 115 2.0 3.0 0.00 0.00 0.00 88 1016.8
20260506120802 66 93 1.0 3.0 0.00 0.00 0.00 89 1017.0
20260506120300 65 122 1.0 2.0 0.00 0.00 0.00 90 1017.1
20260506115757 64 96 2.0 2.0 0.00 0.00 0.00 92 1017.0
20260506115255 63 101 1.0 2.0 0.00 0.00 0.00 93 1017.2
20260506114753 62 140 1.0 1.0 0.00 0.00 0.00 95 1017.1
20260506114250 62 55 0.0 0.0 0.00 0.00 0.00 96 1017.1
20260506113749 61 55 0.0 0.0 0.00 0.00 0.00 96 1016.9
20260506113246 60 73 1.0 1.0 0.00 0.00 0.00 96 1017.0
20260506112742 59 22 0.0 0.0 0.00 0.00 0.00 96 1016.9
20260506112240 58 113 0.0 0.0 0.00 0.00 0.00 96 1016.8
20260506111737 58 129 0.0 1.0 0.00 0.00 0.00 96 1016.7
20260506111235 57 103 0.0 1.0 0.00 0.00 0.00 96 1016.8
20260506110731 57 117 0.0 1.0 0.00 0.00 0.00 96 1016.6
20260506110230 57 135 0.0 0.0 0.00 0.00 0.00 96 1016.7
20260506105726 57 134 0.0 1.0 0.00 0.00 0.00 96 1016.8
20260506105223 57 118 1.0 1.0 0.00 0.00 0.00 96 1016.6
20260506104721 57 144 1.0 1.0 0.00 0.00 0.00 96 1016.7
20260506104218 57 44 0.0 0.0 0.00 0.00 0.00 96 1016.7
20260506103715 57 293 0.0 0.0 0.00 0.00 0.00 96 1016.7
20260506103212 57 293 0.0 0.0 0.00 0.00 0.00 96 1016.7
20260506102710 57 293 0.0 0.0 0.00 0.00 0.00 96 1016.7
20260506102208 57 174 0.0 1.0 0.00 0.00 0.00 96 1016.6
20260506101704 57 174 0.0 1.0 0.00 0.00 0.00 96 1016.6
20260506101201 57 50 0.0 0.0 0.00 0.00 0.00 96 1016.5
20260506100659 57 98 0.0 1.0 0.00 0.00 0.00 95 1016.5
20260506100157 57 142 0.0 0.0 0.00 0.00 0.00 95 1016.5
20260506095655 57 142 0.0 0.0 0.00 0.00 0.00 95 1016.5
20260506095151 57 135 0.0 0.0 0.00 0.00 0.00 95 1016.6
20260506094649 57 135 0.0 0.0 0.00 0.00 0.00 95 1016.6
20260506093454 57 134 0.0 0.0 0.00 0.00 0.00 95 1016.4
20260506092952 57 134 0.0 0.0 0.00 0.00 0.00 95 1016.4
20260506092449 57 199 0.0 0.0 0.00 0.00 0.00 95 1016.3
20260506091946 57 142 0.0 1.0 0.00 0.00 0.00 95 1016.5
20260506091444 57 283 0.0 0.0 0.00 0.00 0.00 95 1016.7
20260506090941 57 283 0.0 0.0 0.00 0.00 0.00 95 1016.7
20260506090439 57 283 0.0 0.0 0.00 0.00 0.00 95 1016.7
20260506085935 57 130 0.0 0.0 0.00 0.00 0.00 95 1016.6
20260506085432 57 113 0.0 1.0 0.00 0.00 0.00 95 1016.4
20260506084928 57 65 1.0 2.0 0.00 0.00 0.00 95 1016.5
20260506084426 57 32 0.0 1.0 0.00 0.00 0.00 94 1016.7
20260506083921 57 142 0.0 0.0 0.00 0.00 0.00 94 1016.8
20260506083419 57 336 0.0 0.0 0.00 0.00 0.00 94 1017.1
20260506082916 57 336 0.0 0.0 0.00 0.00 0.00 94 1017.1
20260506082413 57 309 0.0 0.0 0.00 0.00 0.00 94 1016.9
20260506081908 57 58 0.0 1.0 0.00 0.00 0.00 94 1017.0
20260506081408 57 58 0.0 1.0 0.00 0.00 0.00 94 1017.0
20260506080904 58 11 0.0 1.0 0.00 0.00 0.00 94 1016.7
20260506080401 57 45 1.0 1.0 0.00 0.00 0.00 94 1016.6
20260506073408 58 217 0.0 0.0 0.00 0.00 0.00 93 1016.4
20260506072905 58 217 0.0 0.0 0.00 0.00 0.00 93 1016.4
20260506072402 58 89 0.0 1.0 0.00 0.00 0.00 93 1016.1
20260506071900 58 89 0.0 1.0 0.00 0.00 0.00 93 1016.1
20260506071358 58 116 1.0 2.0 0.00 0.00 0.00 93 1016.2
20260506070854 58 95 1.0 1.0 0.00 0.00 0.00 92 1016.5
20260506070352 58 50 0.0 0.0 0.00 0.00 0.00 92 1016.7
20260506062051 58 224 0.0 1.0 0.00 0.00 0.00 91 1017.0
20260506061546 58 224 0.0 1.0 0.00 0.00 0.00 91 1017.0
20260506061044 58 168 0.0 1.0 0.00 0.00 0.00 90 1016.7
20260506060543 58 168 0.0 1.0 0.00 0.00 0.00 90 1016.7
20260506051011 59 135 0.0 0.0 0.00 0.00 0.00 88 1017.5
20260506050509 59 142 0.0 0.0 0.00 0.00 0.00 87 1017.5
20260506044959 60 89 0.0 0.0 0.00 0.00 0.00 86 1017.5
20260506044458 60 89 0.0 1.0 0.00 0.00 0.00 86 1017.4
20260506043954 60 81 0.0 1.0 0.00 0.00 0.00 86 1017.7
20260506043451 60 131 0.0 0.0 0.00 0.00 0.00 86 1017.7
20260506042949 60 89 0.0 0.0 0.00 0.00 0.00 86 1017.7
20260506042448 60 89 0.0 0.0 0.00 0.00 0.00 86 1017.9
20260506041946 60 22 0.0 0.0 0.00 0.00 0.00 85 1017.8
20260506041444 60 229 0.0 0.0 0.00 0.00 0.00 85 1017.9
20260506040940 60 142 0.0 0.0 0.00 0.00 0.00 84 1018.1
20260506040438 60 147 0.0 1.0 0.00 0.00 0.00 84 1017.7
20260506035934 61 98 0.0 2.0 0.00 0.00 0.00 84 1017.5
20260506035431 61 141 0.0 1.0 0.00 0.00 0.00 83 1017.6
20260506034928 61 95 0.0 1.0 0.00 0.00 0.00 83 1017.8
20260506034425 61 102 0.0 0.0 0.00 0.00 0.00 83 1017.7
20260506033922 61 126 0.0 1.0 0.00 0.00 0.00 83 1017.5
20260506033419 61 89 0.0 0.0 0.00 0.00 0.00 83 1017.6
20260506032916 61 110 0.0 0.0 0.00 0.00 0.00 82 1017.5
20260506032413 61 103 0.0 0.0 0.00 0.00 0.00 82 1017.7
20260506031910 61 135 0.0 0.0 0.00 0.00 0.00 82 1017.5
20260506031407 62 77 0.0 1.0 0.00 0.00 0.00 82 1017.6
20260506030905 62 142 0.0 1.0 0.00 0.00 0.00 81 1017.6
20260506030403 62 135 0.0 1.0 0.00 0.00 0.00 81 1017.5
20260506025859 62 107 0.0 1.0 0.00 0.00 0.00 81 1017.6
20260506025356 62 230 0.0 1.0 0.00 0.00 0.00 81 1017.6
20260506024853 62 153 1.0 1.0 0.00 0.00 0.00 80 1017.3
20260506024350 63 128 0.0 1.0 0.00 0.00 0.00 80 1017.4
20260506023846 63 76 0.0 1.0 0.00 0.00 0.00 79 1017.5
20260506023343 63 162 0.0 1.0 0.00 0.00 0.00 79 1017.8
20260506022839 63 147 0.0 1.0 0.00 0.00 0.00 79 1017.6
20260506022337 63 154 0.0 1.0 0.00 0.00 0.00 78 1017.8
20260506021835 63 147 0.0 0.0 0.00 0.00 0.00 78 1017.7
20260506021332 63 32 0.0 0.0 0.00 0.00 0.00 78 1017.7
20260506020828 63 147 0.0 0.0 0.00 0.00 0.00 78 1017.9
20260506020326 64 142 0.0 0.0 0.00 0.00 0.00 77 1017.7
20260506015824 64 38 0.0 1.0 0.00 0.00 0.00 77 1017.8
20260506015321 64 142 0.0 0.0 0.00 0.00 0.00 76 1017.6
20260506014817 64 37 0.0 1.0 0.00 0.00 0.00 76 1017.6
20260506014314 64 95 0.0 1.0 0.00 0.00 0.00 75 1017.6
20260506013811 65 212 0.0 1.0 0.00 0.00 0.00 75 1017.7
20260506013309 65 124 0.0 1.0 0.00 0.00 0.00 74 1017.3
20260506012805 65 120 0.0 2.0 0.00 0.00 0.00 73 1017.2
20260506012307 65 109 1.0 1.0 0.00 0.00 0.00 73 1017.2
20260506011759 66 131 0.0 2.0 0.00 0.00 0.00 72 1017.3
20260506011255 66 131 1.0 1.0 0.00 0.00 0.00 72 1017.1
20260506010754 66 111 0.0 2.0 0.00 0.00 0.00 71 1017.2
20260506010251 66 113 0.0 2.0 0.00 0.00 0.00 71 1017.3
20260506005748 67 157 0.0 1.0 0.00 0.00 0.00 70 1017.5
20260506005245 67 142 0.0 1.0 0.00 0.00 0.00 69 1017.3
20260506004740 67 113 0.0 1.0 0.00 0.00 0.00 68 1017.2
20260506004238 68 326 0.0 1.0 0.00 0.00 0.00 68 1017.1
20260506003734 68 144 0.0 2.0 0.00 0.00 0.00 67 1017.0
20260506003231 68 128 1.0 2.0 0.00 0.00 0.00 67 1017.2
20260506002726 68 127 2.0 2.0 0.00 0.00 0.00 66 1017.3
20260506002223 69 108 0.0 1.0 0.00 0.00 0.00 66 1017.3
20260506001719 69 108 1.0 2.0 0.00 0.00 0.00 65 1017.2
20260506001217 69 142 0.0 1.0 0.00 0.00 0.00 65 1017.3
20260506000713 69 127 2.0 3.0 0.00 0.00 0.00 64 1017.1
20260506000212 70 127 2.0 4.0 0.00 0.00 0.00 64 1017.4
20260505235708 70 169 0.0 3.0 0.00 0.00 0.00 64 1017.3
20260505235206 70 53 0.0 3.0 0.00 0.00 0.00 63 1017.0
20260505234702 71 140 3.0 4.0 0.00 0.00 0.00 62 1017.2
20260505234200 71 142 1.0 4.0 0.00 0.00 0.00 62 1017.3
20260505233656 71 108 1.0 4.0 0.00 0.00 0.00 61 1017.1
20260505233154 71 139 0.0 3.0 0.00 0.00 0.00 62 1017.0
20260505232651 72 123 3.0 6.0 0.00 0.00 0.00 62 1016.8
20260505232149 72 116 3.0 6.0 0.00 0.00 0.00 62 1016.7
20260505231645 73 143 3.0 5.0 0.00 0.00 0.00 61 1017.1
20260505231144 73 74 2.0 8.0 0.00 0.00 0.00 60 1016.8
20260505230642 74 129 1.0 6.0 0.00 0.00 0.00 58 1016.9
20260505230138 74 110 6.0 6.0 0.00 0.00 0.00 56 1017.1
20260505225634 74 140 0.0 6.0 0.00 0.00 0.00 56 1016.9
20260505225131 75 128 4.0 5.0 0.00 0.00 0.00 55 1016.9
20260505224627 76 131 2.0 3.0 0.00 0.00 0.00 54 1017.0
20260505224125 76 111 1.0 4.0 0.00 0.00 0.00 54 1016.9
20260505223622 76 181 2.0 4.0 0.00 0.00 0.00 54 1016.8
20260505223118 76 9 0.0 5.0 0.00 0.00 0.00 53 1016.9
20260505222615 76 55 1.0 5.0 0.00 0.00 0.00 53 1017.0
20260505222111 76 89 2.0 6.0 0.00 0.00 0.00 53 1016.7
20260505221608 77 67 3.0 7.0 0.00 0.00 0.00 53 1016.9
20260505221104 77 134 3.0 4.0 0.00 0.00 0.00 53 1017.0
20260505220602 77 96 2.0 4.0 0.00 0.00 0.00 54 1017.2
20260505220100 76 36 4.0 6.0 0.00 0.00 0.00 53 1017.1
20260505215557 77 131 4.0 6.0 0.00 0.00 0.00 52 1017.0
20260505215055 78 124 1.0 3.0 0.00 0.00 0.00 52 1016.9
20260505214553 77 135 2.0 6.0 0.00 0.00 0.00 52 1017.3
20260505214049 77 137 2.0 4.0 0.00 0.00 0.00 52 1017.1
20260505213548 77 137 2.0 4.0 0.00 0.00 0.00 52 1017.2
20260505213043 77 165 2.0 7.0 0.00 0.00 0.00 51 1017.0
20260505212540 78 312 2.0 6.0 0.00 0.00 0.00 51 1017.2
20260505212038 77 263 2.0 6.0 0.00 0.00 0.00 50 1017.3
20260505211534 78 120 4.0 4.0 0.00 0.00 0.00 49 1017.5
20260505211031 79 120 3.0 6.0 0.00 0.00 0.00 48 1017.2
20260505210528 79 226 4.0 7.0 0.00 0.00 0.00 49 1017.3
20260505210025 79 230 6.0 6.0 0.00 0.00 0.00 48 1017.0
20260505205523 79 263 1.0 5.0 0.00 0.00 0.00 49 1016.9
20260505205020 79 281 3.0 5.0 0.00 0.00 0.00 48 1017.1
20260505204518 80 171 3.0 5.0 0.00 0.00 0.00 49 1017.2
20260505204014 80 98 2.0 4.0 0.00 0.00 0.00 46 1017.1
20260505203511 80 123 3.0 5.0 0.00 0.00 0.00 46 1017.1
20260505203008 79 262 6.0 6.0 0.00 0.00 0.00 47 1017.1
20260505202504 80 119 2.0 5.0 0.00 0.00 0.00 45 1017.1
20260505202000 79 20 2.0 7.0 0.00 0.00 0.00 45 1017.0
20260505201457 79 130 1.0 4.0 0.00 0.00 0.00 45 1017.1
20260505200955 80 116 4.0 6.0 0.00 0.00 0.00 44 1017.4
20260505200453 80 101 2.0 6.0 0.00 0.00 0.00 46 1017.3
20260505195948 79 292 4.0 5.0 0.00 0.00 0.00 50 1017.4
20260505195445 80 345 2.0 6.0 0.00 0.00 0.00 48 1017.2
20260505194942 79 126 3.0 6.0 0.00 0.00 0.00 49 1017.4
20260505194440 79 94 2.0 7.0 0.00 0.00 0.00 49 1017.5
20260505193940 79 279 5.0 6.0 0.00 0.00 0.00 48 1017.6
20260505193438 80 254 4.0 7.0 0.00 0.00 0.00 49 1017.7
20260505192935 79 123 3.0 7.0 0.00 0.00 0.00 49 1017.7
20260505192433 81 129 4.0 5.0 0.00 0.00 0.00 47 1018.0
20260505191931 80 160 4.0 6.0 0.00 0.00 0.00 48 1018.1
20260505191430 80 260 2.0 4.0 0.00 0.00 0.00 47 1018.2
20260505190926 80 121 5.0 10.0 0.00 0.00 0.00 47 1018.2
20260505190421 81 138 4.0 9.0 0.00 0.00 0.00 46 1018.4
20260505185916 80 81 1.0 5.0 0.00 0.00 0.00 47 1018.3
20260505185414 80 54 2.0 6.0 0.00 0.00 0.00 46 1018.4
20260505184910 80 153 4.0 8.0 0.00 0.00 0.00 46 1018.4
20260505184407 80 144 1.0 3.0 0.00 0.00 0.00 49 1018.3
20260505183904 79 178 4.0 9.0 0.00 0.00 0.00 48 1018.4
20260505183401 79 221 1.0 5.0 0.00 0.00 0.00 48 1018.3
20260505182857 80 206 0.0 10.0 0.00 0.00 0.00 46 1018.3
20260505182354 80 137 2.0 5.0 0.00 0.00 0.00 46 1018.2
20260505181851 79 225 3.0 6.0 0.00 0.00 0.00 46 1018.0
20260505181348 79 215 6.0 6.0 0.00 0.00 0.00 46 1018.0
20260505180845 80 180 2.0 7.0 0.00 0.00 0.00 45 1018.0
20260505180341 81 163 1.0 5.0 0.00 0.00 0.00 45 1018.4
20260505175838 80 251 5.0 6.0 0.00 0.00 0.00 46 1018.1
20260505175334 79 162 3.0 7.0 0.00 0.00 0.00 48 1018.0
20260505174831 80 82 3.0 5.0 0.00 0.00 0.00 45 1018.1
20260505174328 80 159 4.0 5.0 0.00 0.00 0.00 47 1018.2
20260505173824 78 155 4.0 7.0 0.00 0.00 0.00 50 1018.4
20260505173320 79 130 2.0 5.0 0.00 0.00 0.00 48 1018.0
20260505172818 79 117 3.0 4.0 0.00 0.00 0.00 48 1018.0
20260505172316 79 159 5.0 7.0 0.00 0.00 0.00 47 1017.9
20260505171815 79 339 4.0 4.0 0.00 0.00 0.00 46 1018.4
20260505171313 80 251 3.0 6.0 0.00 0.00 0.00 46 1018.5
20260505170808 80 248 0.0 5.0 0.00 0.00 0.00 47 1018.5
20260505170306 80 31 2.0 6.0 0.00 0.00 0.00 46 1018.5
20260505165801 79 136 4.0 9.0 0.00 0.00 0.00 48 1018.6
20260505165257 78 70 1.0 5.0 0.00 0.00 0.00 49 1018.6
20260505164753 78 201 4.0 7.0 0.00 0.00 0.00 49 1018.5
20260505164250 80 207 9.0 11.0 0.00 0.00 0.00 46 1019.1
20260505163748 81 164 1.0 7.0 0.00 0.00 0.00 47 1018.9
20260505163247 80 204 3.0 5.0 0.00 0.00 0.00 48 1018.6
20260505162744 79 315 1.0 4.0 0.00 0.00 0.00 49 1018.9
20260505162241 78 14 2.0 5.0 0.00 0.00 0.00 49 1018.9
20260505161737 78 176 2.0 3.0 0.00 0.00 0.00 49 1019.0
20260505161235 79 7 3.0 9.0 0.00 0.00 0.00 48 1018.9
20260505160732 78 127 1.0 4.0 0.00 0.00 0.00 49 1019.2
20260505160230 78 213 3.0 6.0 0.00 0.00 0.00 51 1019.2
20260505153209 78 147 2.0 3.0 0.00 0.00 0.00 55 1019.2
20260505152706 77 176 3.0 4.0 0.00 0.00 0.00 56 1019.2
20260505152202 77 113 3.0 6.0 0.00 0.00 0.00 54 1019.1
20260505151657 77 11 2.0 3.0 0.00 0.00 0.00 54 1019.1
20260505151155 76 36 1.0 5.0 0.00 0.00 0.00 56 1019.2
20260505150651 77 248 0.0 3.0 0.00 0.00 0.00 55 1019.1
20260505150148 77 235 3.0 5.0 0.00 0.00 0.00 54 1019.3
20260505140616 73 290 2.0 4.0 0.00 0.00 0.00 60 1019.0
20260505140114 73 296 1.0 4.0 0.00 0.00 0.00 62 1019.0